Regional Weather Roundup
Issued by NWS

Home | Current Version | Previous Version | Text Only | Print | Product List | Glossary On
Versions: 1 2 3 4 5 6 7 8 9 10 11 12 13 14 15 16 17 18 19 20 21 22 23 24 25 26 27 28 29 30 31 32 33 34 35 36 37 38 39 40 41 42 43 44 45 46 47 48 49 50
000
ASUS45 KBOU 230507
RWRCO

WEATHER ROUNDUP FOR COLORADO
NATIONAL WEATHER SERVICE DENVER/BOULDER CO
1000 PM MST SUN JAN 22 2017

NOTE: "FAIR" INDICATES FEW OR NO CLOUDS BELOW 12000 FEET WITH NO
SIGNIFICANT WEATHER AND/OR OBSTRUCTIONS TO VISIBILITY.

COZ001>005-013-030-031-230600-
...NORTHWEST COLORADO...

CITY           SKY/WX    TMP DP  RH WIND       PRES   REMARKS
CRAIG          CLOUDY    28  21  75 E7        29.82F WCI  21
HAYDEN         CLOUDY    25  18  74 E10       29.81F WCI  15
MEEKER         CLOUDY    29  21  72 VRB3      29.83F
MOUNT WERNER   NOT AVBL
STEAMBOAT SPGS CLOUDY    21  20  95 CALM      29.82F
WALDEN           N/A     21  16  79 SE8       29.81F WCI  12
$$

COZ006>008-011-230600-
...WEST CENTRAL VALLEYS...

CITY           SKY/WX    TMP DP  RH WIND       PRES   REMARKS
GRAND JUNCTION LGT SNOW  33  29  85 SE16      29.92F FOG     WCI  23
MONTROSE       CLOUDY    29  28  96 CALM      29.99S
EAGLE          LGT SNOW  25  23  93 CALM      29.92F
RIFLE          LGT SNOW  30  29  96 CALM      29.93S VSB 1
DELTA          LGT SNOW  33  29  85 E7        30.00R WCI  27
NUCLA          LGT SNOW  30  28  93 N3        30.03F
$$

COZ017>023-064>068-230600-
...SOUTHWEST COLORADO...

CITY           SKY/WX    TMP DP  RH WIND       PRES   REMARKS
DURANGO        FLURRIES  24  21  88 CALM      30.09F
CORTEZ         FLURRIES  30  24  78 S8        30.07R WCI  22
PAGOSA SPRINGS LGT SNOW  24  24  99 CALM      30.09S
TELLURIDE      NOT AVBL
WOLF CREEK PAS CLOUDY     9   7  92 S22G33    29.99R WCI -11
$$

COZ009-010-012-014-032>034-037-058>063-230600-
...CENTRAL COLORADO...

CITY           SKY/WX    TMP DP  RH WIND       PRES   REMARKS
ASPEN          LGT SNOW  22  21  96 N5        29.87F FOG     WCI  16
BUENA VISTA    CLOUDY    24  16  70 SE13      29.90F WCI  13
COPPER MTN     LGT SNOW  23  18  80 S22G28    29.82F WCI   8
BERTHOUD PASS  CLOUDY    12   1  62 MISG      29.80F
COTTONWOOD PAS FLURRIES  23  19  86 E8        29.88F WCI  14
GUNNISON       LGT SNOW  19  17  92 NE6       29.97F VSB 1   WCI  11
KREMMLING      CLOUDY    27  21  80 E6        29.87F WCI  20
LEADVILLE      SNOW      16  13  88 CALM      29.85S VSB 1/2
MONARCH PASS     N/A     10   7  85 SW26G33   29.97F WCI -11
SALIDA         CLOUDY    32  14  48 S17G28    29.97F WCI  20
SUNLIGHT       CLOUDY    16  12  86 SW12G20   29.89S WCI   3
WILKERSON PASS CLOUDY    14  10  85 SW18G24   29.87F WCI  -3
$$

COZ069>075-230600-
...SAN LUIS VALLEY/SANGRE DE CRISTO MOUNTAINS...

CITY           SKY/WX    TMP DP  RH WIND       PRES   REMARKS
ALAMOSA        FAIR      15  11  83 E7        29.98F WCI   5
LA VETA PASS   CLOUDY    19  12  73 NE31G44   29.91F HAZE    WCI   0
SAGUACHE       CLOUDY    23  16  74 CALM      29.98F
$$

COZ035-036-038>040-230600-
...NORTHERN COLORADO FRONT RANGE...

CITY           SKY/WX    TMP DP  RH WIND       PRES   REMARKS
DENVER INTL AP CLOUDY    30  19  63 S9        29.79F WCI  22
DMNS CITY PARK   N/A     35  11  36 E6        29.78F WCI  30
AURORA         MOCLDY    35  16  45 S10       29.79F WCI  27
FRONT RANGE AP NOT AVBL
ERIE MUNI ARPT FAIR      32  20  61 W3        29.80F
BOULDER MUN AP FAIR      34  18  51 SW3       29.80F
CENTENNIAL     CLOUDY    34  15  46 SE3       29.79F
BROOMFIELD     PTCLDY    34  16  47 CALM      29.79F
FORT COLLINS   FAIR      34  16  47 CALM      29.82F
LONGMONT       FAIR      33  21  60 NW5       29.82F WCI  29
$$

COZ041-046-047-076>085-087-088-230600-
...PIKES PEAK/PALMER DIVIDE AND SOUTHERN FOOTHILLS...

CITY           SKY/WX    TMP DP  RH WIND       PRES   REMARKS
COLO. SPRINGS  MOCLDY    30  15  53 E12       29.84F WCI  20
A. F. ACADEMY  FAIR      30  12  47 SW5       29.83F WCI  25
SCHRIEVER AFB  NOT AVBL
ELLICOTT       FAIR     N/A N/A N/A SE13      29.84F
FALCON         FAIR      27  13  57 E5        29.84F WCI  21
FORT CARSON    NOT AVBL
LIMON          FAIR      26  21  81 SE7       29.88F WCI  18
MONUMENT HILL  CLOUDY    30  12  47 S12       29.83F WCI  21
TRINIDAD       FAIR      23  12  62 NW10      29.89F WCI  12
$$

COZ042>045-048>051-090-091-230600-
...NORTHEAST COLORADO...

CITY           SKY/WX    TMP DP  RH WIND       PRES   REMARKS
GREELEY ARPT   FAIR      30  23  75 NE8       29.83  WCI  22
AKRON          FAIR      31  18  58 SE9       29.86F WCI  23
BURLINGTON     FAIR      30  24  78 SW3       29.91F
WRAY           NOT AVBL
STERLING       FAIR      25  21  86 W6        29.85S WCI  18
HOLYOKE        FAIR      27  23  86 SW7       29.88F WCI  19
FORT MORGAN    FAIR      28  20  72 CALM      29.86S
$$

COZ086-089-092>099-230600-
...SOUTHEAST COLORADO...

CITY           SKY/WX    TMP DP  RH WIND       PRES   REMARKS
PUEBLO         FAIR      35  22  58 NE8       29.84F WCI  29
LA JUNTA       FAIR      35  20  54 S3        29.91S
LAMAR          FAIR      27  23  85 CALM      29.91F
SPRINGFIELD      N/A     23  17  78 SW7       29.93R WCI  15
$$



USA.gov is the U.S. government's official web portal to all federal, state and local government web resources and services.